Home   Weather   Gatineau   Past weeks

Flag for Canada Past Weather in Gatineau, Quebec, Canada — Yesterday and Last 2 Weeks

Now
34 °F

Mostly cloudy.


Feels Like: 23 °F
Forecast: 28 / 35 °F
Wind: 16 mph from Northwest

Location: Ottawa Int'L. Ont.

Current Time: Dec 3, 2016 at 4:51:42 am

Latest Report: Dec 3, 2016 at 4:00 am


Visibility: 15 mi

Pressure: 29.93 "Hg

Humidity: 75%

Dew Point: 27 °F

Location of GatineauLocation

Past Weather in Gatineau — Graph

°F

Gatineau Temperature Yesterday

Maximum temperature yesterday: 39 °F (at 12:00 am)
Minimum temperature yesterday: 34 °F (at 11:00 pm)
Average temperature yesterday: 38 °F

High & Low Weather Summary for the Past Weeks

 TemperatureHumidityPressure
High50 °F (Nov 18, 1:00 pm)100% (Nov 18, 3:00 am)30.35 "Hg (Nov 18, 3:00 am)
Low21 °F (Nov 23, 5:00 am)65% (Dec 2, 1:00 pm)29.31 "Hg (Dec 1, 3:46 am)
Average33 °F89%29.91 "Hg
* Reported Nov 18 3:00 am — Dec 3 3:00 am, Gatineau, Weather by CustomWeather, © 2016

Note: Actual official high and low records may vary slightly from our data, if they occured in-between our weather recording intervals... More about our weather records

Advertising

Gatineau Weather History for the Previous 24 Hours

Scroll right to see more
 ConditionsComfort  
Time TempWeatherWind HumidityBarometerVisibility
3:00 am
Sat, Dec 3
34 °FMostly cloudy.16 mph81%29.91 "Hg15 mi
2:00 am34 °FOvercast.16 mph81%29.90 "Hg15 mi
1:00 am34 °FMostly cloudy.15 mph81%29.87 "Hg15 mi
12:00 am34 °FOvercast.13 mph87%29.85 "Hg15 mi
11:00 pm
Fri, Dec 2
34 °FMostly cloudy.17 mph81%29.84 "Hg15 mi
10:00 pm36 °FMostly cloudy.14 mph75%29.83 "Hg15 mi
9:00 pm36 °FLight snow. Overcast.16 mph81%29.81 "Hg15 mi
8:52 pm36 °FLight snow. Overcast.16 mph81%29.81 "Hg15 mi
8:00 pm36 °FOvercast.14 mph81%29.80 "Hg15 mi
7:00 pm36 °FMostly cloudy.14 mph75%29.79 "Hg15 mi
6:00 pm36 °FPassing clouds.15 mph75%29.77 "Hg15 mi
5:00 pm36 °FPassing clouds.12 mph75%29.75 "Hg15 mi
4:00 pm37 °FBroken clouds.14 mph70%29.74 "Hg15 mi
3:00 pm37 °FBroken clouds.15 mph75%29.72 "Hg15 mi
2:00 pm39 °FMostly cloudy.13 mph70%29.71 "Hg15 mi
1:00 pm39 °FPartly sunny.18 mph65%29.69 "Hg15 mi
12:00 pm39 °FBroken clouds.15 mph75%29.69 "Hg15 mi
11:00 am37 °FBroken clouds.12 mph87%29.70 "Hg15 mi
10:00 am37 °FLight rain. Overcast.13 mph87%29.69 "Hg15 mi
9:00 am37 °FLight rain. Overcast.16 mph87%29.68 "Hg15 mi
8:00 am39 °FOvercast.13 mph87%29.64 "Hg15 mi
7:00 am39 °FOvercast.12 mph87%29.64 "Hg15 mi
6:00 am39 °FMostly cloudy.12 mph87%29.63 "Hg15 mi
5:52 am39 °FMostly cloudy.13 mph87%29.63 "Hg15 mi
5:00 am39 °FPassing clouds.12 mph87%29.62 "Hg15 mi
4:00 am39 °FOvercast.9 mph87%29.62 "Hg15 mi
Weather by CustomWeather, © 2016

See weather overviewHow to use our weather pages